Back to catalog

CZ-3A DEB

LostGTO
NORAD 35563·DEBRIS·🇨🇳 China

Launched Feb 2, 2007 from Xichang Satellite Launch Center

Loading…

TLE

StaleSource: Space-Track

Epoch: Jun 1, 2026, 05:54 UTC

1 35563U 07003X   26152.24607113  .00000339  00000-0  59908-2 0  9990
2 35563  21.7032 171.2917 7481304  83.1769 359.3071  1.89935042 15777

Track CZ-3A DEB in real time with AllMySat

Download on the App Store